Regional Weather Roundup
Issued by NWS Charleston, WV

Home | Current Version | Previous Version | Text Only | Print | Product List | Glossary Off
Versions: 1 2 3 4 5 6 7 8 9 10 11 12 13 14 15 16 17 18 19 20 21 22 23 24 25 26 27 28 29 30 31 32 33 34 35 36 37 38 39 40 41 42 43 44 45 46 47 48 49 50

046
ASUS41 KRLX 081710
RWRRLX
West Virginia Regional Weather Roundup
National Weather Service Charleston WV
1200 PM EST MON FEB 08 2016

Note: "fair" indicates few or no clouds below 12,000 feet with no
significant weather and/or obstructions to visibility.

WVZ003-081800-
Northern Panhandle of West Virginia

CITY           SKY/WX    TMP DP  RH WIND       PRES   REMARKS
WHEELING       CLOUDY    42  25  50 SW14      29.59F
$$

WVZ009-081800-
Northwest West Virginia

CITY           SKY/WX    TMP DP  RH WIND       PRES   REMARKS
PARKERSBURG    LGT RAIN  37  34  89 SW9       29.65F
$$

WVZ006-081800-
Western West Virginia

CITY           SKY/WX    TMP DP  RH WIND       PRES   REMARKS
HUNTINGTON     CLOUDY    39  34  82 SW10G17   29.66F
$$

WVZ015-081800-
West Central West Virginia

CITY           SKY/WX    TMP DP  RH WIND       PRES   REMARKS
CHARLESTON     CLOUDY    42  30  62 W13G22    29.65F
$$

WVZ022-031-081800-
North Central West Virginia

CITY           SKY/WX    TMP DP  RH WIND       PRES   REMARKS
CLARKSBURG     CLOUDY    44  26  49 SW7G17    29.61F
MORGANTOWN     CLOUDY    45  22  40 S7        29.61F
$$

WVZ025-035-042-045-081800-
Southern West Virginia

CITY           SKY/WX    TMP DP  RH WIND       PRES   REMARKS
BECKLEY        LGT SNOW  36  28  73 SW10      29.64F
LOGAN          CLOUDY    41  28  60 VRB6      29.64F
BLUEFIELD      LGT SNOW  33  27  78 SW12      29.64F
LEWISBURG      SNOW      34  32  93 S3        29.67F VSB 1/2
$$

WVZ047-081800-
Northern Mountains of West Virginia

CITY           SKY/WX    TMP DP  RH WIND       PRES   REMARKS
ELKINS         CLOUDY    39  27  62 SW3       29.62F
$$

WVZ052-081800-
Eastern Panhandle of West Virginia

CITY           SKY/WX    TMP DP  RH WIND       PRES   REMARKS
MARTINSBURG      N/A     41  22  46 S3        29.74F
PETERSBURG     PTSUNNY   42  28  58 CALM      29.68F
$$




USA.gov is the U.S. government's official web portal to all federal, state and local government web resources and services.